TimeEST,TemperatureF,Dew PointF,Humidity,Sea Level PressureIn,VisibilityMPH,Wind Direction,Wind SpeedMPH,Gust SpeedMPH,PrecipitationIn,Events,Conditions,WindDirDegrees,DateUTC
12:53 AM,33.1,19.9,59,30.36,10.0,Calm,Calm,-,N/A,,Clear,0,2013-01-05 05:53:00
1:53 AM,32.0,19.9,61,30.36,10.0,Calm,Calm,-,N/A,,Clear,0,2013-01-05 06:53:00
2:53 AM,33.1,21.0,61,30.38,10.0,NNW,5.8,-,N/A,,Clear,340,2013-01-05 07:53:00
3:53 AM,33.1,21.0,61,30.36,10.0,North,5.8,-,N/A,,Clear,350,2013-01-05 08:53:00
4:53 AM,30.0,21.0,69,30.37,10.0,Calm,Calm,-,N/A,,Clear,0,2013-01-05 09:53:00
5:53 AM,28.9,21.0,72,30.38,10.0,Calm,Calm,-,N/A,,Clear,0,2013-01-05 10:53:00
6:53 AM,26.1,21.9,84,30.38,10.0,Calm,Calm,-,N/A,,Clear,0,2013-01-05 11:53:00
7:53 AM,27.0,21.9,81,30.42,10.0,Calm,Calm,-,N/A,,Clear,0,2013-01-05 12:53:00
8:53 AM,32.0,26.1,79,30.44,10.0,Calm,Calm,-,N/A,,Clear,0,2013-01-05 13:53:00
9:53 AM,39.9,24.1,53,30.45,10.0,NE,3.5,-,N/A,,Clear,40,2013-01-05 14:53:00
10:53 AM,44.1,21.9,42,30.44,10.0,NE,3.5,-,N/A,,Clear,50,2013-01-05 15:53:00
11:53 AM,46.0,24.1,42,30.40,10.0,Calm,Calm,-,N/A,,Clear,0,2013-01-05 16:53:00
12:53 PM,48.0,21.9,36,30.37,10.0,Calm,Calm,-,N/A,,Clear,0,2013-01-05 17:53:00
1:53 PM,51.1,24.1,35,30.34,10.0,Variable,5.8,-,N/A,,Clear,0,2013-01-05 18:53:00
2:53 PM,51.1,23.0,33,30.34,10.0,Variable,3.5,-,N/A,,Clear,0,2013-01-05 19:53:00
3:53 PM,51.1,23.0,33,30.34,10.0,Variable,4.6,-,N/A,,Clear,0,2013-01-05 20:53:00
4:53 PM,48.9,24.1,38,30.33,10.0,SSW,4.6,-,N/A,,Clear,210,2013-01-05 21:53:00
5:53 PM,46.0,25.0,44,30.34,10.0,Calm,Calm,-,N/A,,Clear,0,2013-01-05 22:53:00
6:53 PM,42.1,28.0,58,30.35,10.0,SSW,3.5,-,N/A,,Clear,200,2013-01-05 23:53:00
7:53 PM,44.1,28.0,53,30.34,10.0,SSW,3.5,-,N/A,,Clear,210,2013-01-06 00:53:00
8:53 PM,44.1,28.0,53,30.35,10.0,SSW,3.5,-,N/A,,Mostly Cloudy,210,2013-01-06 01:53:00
9:53 PM,44.1,30.9,60,30.35,10.0,SW,4.6,-,0.00,Rain,Light Rain,220,2013-01-06 02:53:00
10:53 PM,44.1,32.0,63,30.33,10.0,WSW,3.5,-,0.00,,Overcast,240,2013-01-06 03:53:00
11:53 PM,42.1,35.1,76,30.28,10.0,Calm,Calm,-,0.00,Rain,Light Rain,0,2013-01-06 04:53:00